Location: Knowlton
(51.2333°N, 1.2667°E)
Time: 11:12:42
(UTC+00:00)

X-37B - Visible Passes

Search period start: 27 September 2021 00:00
Search period end: 07 October 2021 00:00
Orbit: 381 x 393 km, 45.0° (Epoch: 29 August)

Date Brightness Start Highest point End Pass type
(mag) Time Alt. Az. Time Alt. Az. Time Alt. Az.
27 Sep 3.2 03:21:20 14° SE 03:21:20 14° SE 03:22:11 10° ESE visible
27 Sep 2.1 04:53:37 12° WSW 04:55:59 26° S 04:58:42 10° ESE visible
28 Sep 2.1 03:57:54 25° S 03:57:54 25° S 04:00:27 10° ESE visible
29 Sep 2.0 04:34:29 20° SW 04:35:40 25° S 04:38:19 10° SE visible
30 Sep 2.8 03:38:49 19° SE 03:38:49 19° SE 03:40:09 10° ESE visible
30 Sep 2.6 05:11:21 10° WSW 05:13:31 17° SSW 05:15:41 10° SSE visible
01 Oct 2.2 04:15:30 21° S 04:15:30 21° S 04:17:50 10° SE visible
02 Oct 2.8 04:52:16 12° SW 04:53:06 13° SSW 04:54:34 10° S visible
03 Oct 3.3 03:56:49 11° SSE 03:56:49 11° SSE 03:57:07 10° SSE visible
